Time,TemperatureF,DewpointF,PressureIn,WindDirection,WindDirectionDegrees,WindSpeedMPH,WindSpeedGustMPH,Humidity,HourlyPrecipIn,Conditions,Clouds,dailyrainin,SoftwareType,DateUTC
2013-04-19 00:01:00,27.0,12.0,-100.00,WNW,284,19.0,24.0,53,0.00,,,-99.99,,2013-04-19 06:01:00,
2013-04-19 00:11:00,27.0,13.0,-100.00,West,280,17.0,22.0,54,0.00,,,-99.99,,2013-04-19 06:11:00,
2013-04-19 00:22:00,27.0,13.0,-100.00,West,280,18.0,24.0,55,0.00,,,-99.99,,2013-04-19 06:22:00,
2013-04-19 00:32:00,27.0,13.0,-100.00,West,275,19.0,24.0,57,0.00,,,-99.99,,2013-04-19 06:32:00,
2013-04-19 00:42:00,26.0,15.0,-100.00,West,274,19.0,24.0,61,0.00,,,-99.99,,2013-04-19 06:42:00,
2013-04-19 00:52:00,26.0,15.0,-100.00,West,277,20.0,24.0,60,0.00,,,-99.99,,2013-04-19 06:52:00,
2013-04-19 01:02:00,26.0,15.0,-100.00,West,274,19.0,26.0,61,0.00,,,-99.99,,2013-04-19 07:02:00,
2013-04-19 01:12:00,26.0,15.0,-100.00,West,272,19.0,25.0,64,0.00,,,-99.99,,2013-04-19 07:12:00,
2013-04-19 01:21:00,26.0,15.0,-100.00,West,277,19.0,24.0,64,0.00,,,-99.99,,2013-04-19 07:21:00,
2013-04-19 01:32:00,25.0,15.0,-100.00,West,268,21.0,28.0,65,0.00,,,-99.99,,2013-04-19 07:32:00,
2013-04-19 01:42:00,25.0,15.0,-100.00,West,264,23.0,28.0,67,0.00,,,-99.99,,2013-04-19 07:42:00,
2013-04-19 01:52:00,25.0,16.0,-100.00,West,263,22.0,27.0,68,0.00,,,-99.99,,2013-04-19 07:52:00,
2013-04-19 02:02:00,25.0,15.0,-100.00,West,263,26.0,31.0,66,0.00,,,-99.99,,2013-04-19 08:02:00,
2013-04-19 02:12:00,25.0,15.0,-100.00,West,265,26.0,31.0,66,0.00,,,-99.99,,2013-04-19 08:12:00,
2013-04-19 02:21:00,25.0,15.0,-100.00,West,271,22.0,28.0,66,0.00,,,-99.99,,2013-04-19 08:21:00,
2013-04-19 02:32:00,25.0,15.0,-100.00,West,270,22.0,26.0,65,0.00,,,-99.99,,2013-04-19 08:32:00,
2013-04-19 02:42:00,25.0,15.0,-100.00,West,268,21.0,26.0,66,0.00,,,-99.99,,2013-04-19 08:42:00,
2013-04-19 02:52:00,24.0,15.0,-100.00,West,265,22.0,28.0,67,0.00,,,-99.99,,2013-04-19 08:52:00,
2013-04-19 03:01:00,25.0,15.0,-100.00,West,267,21.0,25.0,65,0.00,,,-99.99,,2013-04-19 09:01:00,
2013-04-19 03:11:00,24.0,14.0,-100.00,West,264,21.0,24.0,65,0.00,,,-99.99,,2013-04-19 09:11:00,
2013-04-19 03:21:00,25.0,13.0,-100.00,WSW,254,18.0,24.0,61,0.00,,,-99.99,,2013-04-19 09:21:00,
2013-04-19 03:32:00,24.0,14.0,-100.00,West,261,19.0,24.0,63,0.00,,,-99.99,,2013-04-19 09:32:00,
2013-04-19 03:42:00,24.0,13.0,-100.00,West,263,17.0,22.0,65,0.00,,,-99.99,,2013-04-19 09:42:00,
2013-04-19 03:52:00,24.0,13.0,-100.00,West,268,14.0,18.0,64,0.00,,,-99.99,,2013-04-19 09:52:00,
2013-04-19 04:02:00,22.0,13.0,-100.00,West,270,13.0,16.0,66,0.00,,,-99.99,,2013-04-19 10:02:00,
2013-04-19 04:13:00,23.0,13.0,-100.00,West,275,11.0,14.0,64,0.00,,,-99.99,,2013-04-19 10:13:00,
2013-04-19 04:23:00,24.0,13.0,-100.00,West,268,14.0,18.0,63,0.00,,,-99.99,,2013-04-19 10:23:00,
2013-04-19 04:33:00,23.0,12.0,-100.00,WSW,256,12.0,17.0,61,0.00,,,-99.99,,2013-04-19 10:33:00,
2013-04-19 04:42:00,23.0,12.0,-100.00,WSW,254,14.0,19.0,61,0.00,,,-99.99,,2013-04-19 10:42:00,
2013-04-19 04:52:00,22.0,11.0,-100.00,WSW,251,13.0,18.0,63,0.00,,,-99.99,,2013-04-19 10:52:00,
2013-04-19 05:02:00,22.0,11.0,-100.00,WSW,251,14.0,18.0,64,0.00,,,-99.99,,2013-04-19 11:02:00,
2013-04-19 05:11:00,23.0,11.0,-100.00,WSW,251,16.0,19.0,61,0.00,,,-99.99,,2013-04-19 11:11:00,
2013-04-19 05:22:00,22.0,11.0,-100.00,WSW,239,14.0,17.0,61,0.00,,,-99.99,,2013-04-19 11:22:00,
2013-04-19 05:32:00,20.0,10.0,-100.00,WSW,246,11.0,14.0,63,0.00,,,-99.99,,2013-04-19 11:32:00,
2013-04-19 05:42:00,22.0,11.0,-100.00,WSW,248,9.0,15.0,62,0.00,,,-99.99,,2013-04-19 11:42:00,
2013-04-19 05:52:00,25.0,11.0,-100.00,WSW,254,7.0,12.0,55,0.00,,,-99.99,,2013-04-19 11:52:00,
2013-04-19 06:02:00,22.0,10.0,-100.00,WSW,258,8.0,13.0,59,0.00,,,-99.99,,2013-04-19 12:02:00,
2013-04-19 06:12:00,26.0,11.0,-100.00,WSW,244,7.0,14.0,54,0.00,,,-99.99,,2013-04-19 12:12:00,
2013-04-19 06:22:00,24.0,11.0,-100.00,West,268,3.0,8.0,57,0.00,,,-99.99,,2013-04-19 12:22:00,
2013-04-19 06:32:00,23.0,10.0,-100.00,SW,234,8.0,14.0,58,0.00,,,-99.99,,2013-04-19 12:32:00,
2013-04-19 06:42:00,18.0,10.0,-100.00,SSW,202,12.0,20.0,68,0.00,,,-99.99,,2013-04-19 12:42:00,
2013-04-19 06:52:00,18.0,9.0,-100.00,SSW,196,12.0,15.0,69,0.00,,,-99.99,,2013-04-19 12:52:00,
2013-04-19 07:01:00,16.0,9.0,-100.00,SSW,200,14.0,21.0,73,0.00,,,-99.99,,2013-04-19 13:01:00,
2013-04-19 07:11:00,19.0,10.0,-100.00,SSW,206,12.0,14.0,69,0.00,,,-99.99,,2013-04-19 13:11:00,
2013-04-19 07:21:00,21.0,11.0,-100.00,SW,220,9.0,17.0,64,0.00,,,-99.99,,2013-04-19 13:21:00,
2013-04-19 07:32:00,19.0,10.0,-100.00,SSW,202,11.0,14.0,68,0.00,,,-99.99,,2013-04-19 13:32:00,
2013-04-19 07:42:00,21.0,10.0,-100.00,SSW,212,10.0,14.0,63,0.00,,,-99.99,,2013-04-19 13:42:00,
2013-04-19 07:52:00,23.0,11.0,-100.00,SW,223,10.0,14.0,58,0.00,,,-99.99,,2013-04-19 13:52:00,
2013-04-19 08:01:00,18.0,10.0,-100.00,SSW,203,9.0,11.0,69,0.00,,,-99.99,,2013-04-19 14:01:00,
2013-04-19 08:11:00,20.0,10.0,-100.00,SSW,202,7.0,11.0,66,0.00,,,-99.99,,2013-04-19 14:11:00,
2013-04-19 08:22:00,21.0,11.0,-100.00,SSW,193,10.0,14.0,66,0.00,,,-99.99,,2013-04-19 14:22:00,
2013-04-19 08:32:00,22.0,12.0,-100.00,SSW,210,7.0,12.0,64,0.00,,,-99.99,,2013-04-19 14:32:00,
2013-04-19 08:42:00,22.0,13.0,-100.00,SSW,203,11.0,15.0,67,0.00,,,-99.99,,2013-04-19 14:42:00,
2013-04-19 08:52:00,27.0,13.0,-100.00,SW,234,9.0,17.0,56,0.00,,,-99.99,,2013-04-19 14:52:00,
2013-04-19 09:01:00,28.0,13.0,-100.00,SSW,212,6.0,9.0,54,0.00,,,-99.99,,2013-04-19 15:01:00,
2013-04-19 09:12:00,28.0,14.0,-100.00,SSW,198,5.0,8.0,54,0.00,,,-99.99,,2013-04-19 15:12:00,
2013-04-19 09:21:00,27.0,15.0,-100.00,SSW,209,7.0,11.0,59,0.00,,,-99.99,,2013-04-19 15:21:00,
2013-04-19 09:33:00,29.0,15.0,-100.00,SW,230,9.0,19.0,54,0.00,,,-99.99,,2013-04-19 15:33:00,
2013-04-19 09:43:00,31.0,14.0,-100.00,West,274,16.0,23.0,51,0.00,,,-99.99,,2013-04-19 15:43:00,
2013-04-19 09:52:00,32.0,17.0,-100.00,WSW,240,9.0,20.0,52,0.00,,,-99.99,,2013-04-19 15:52:00,
2013-04-19 10:03:00,35.0,15.0,-100.00,West,274,4.0,7.0,45,0.00,,,-99.99,,2013-04-19 16:03:00,
2013-04-19 10:12:00,33.0,17.0,-100.00,WSW,239,4.0,9.0,51,0.00,,,-99.99,,2013-04-19 16:12:00,
2013-04-19 10:23:00,35.0,17.0,-100.00,SW,219,3.0,6.0,48,0.00,,,-99.99,,2013-04-19 16:23:00,
2013-04-19 10:32:00,34.0,19.0,-100.00,SSW,205,5.0,7.0,53,0.00,,,-99.99,,2013-04-19 16:32:00,
2013-04-19 10:42:00,34.0,17.0,-100.00,SSW,202,9.0,16.0,50,0.00,,,-99.99,,2013-04-19 16:42:00,
2013-04-19 10:52:00,33.0,16.0,-100.00,SSW,202,12.0,26.0,48,0.00,,,-99.99,,2013-04-19 16:52:00,
2013-04-19 11:02:00,33.0,17.0,-100.00,WSW,256,13.0,23.0,51,0.00,,,-99.99,,2013-04-19 17:02:00,
2013-04-19 11:12:00,33.0,18.0,-100.00,West,280,17.0,29.0,56,0.00,,,-99.99,,2013-04-19 17:12:00,
2013-04-19 11:21:00,33.0,17.0,-100.00,West,268,18.0,25.0,53,0.00,,,-99.99,,2013-04-19 17:21:00,
2013-04-19 11:33:00,32.0,20.0,-100.00,West,272,24.0,34.0,60,0.00,,,-99.99,,2013-04-19 17:33:00,
2013-04-19 11:42:00,32.0,18.0,-100.00,West,272,26.0,34.0,56,0.00,,,-99.99,,2013-04-19 17:42:00,
2013-04-19 11:52:00,33.0,19.0,-100.00,West,274,23.0,31.0,56,0.00,,,-99.99,,2013-04-19 17:52:00,
2013-04-19 12:02:00,33.0,21.0,-100.00,West,274,21.0,30.0,60,0.00,,,-99.99,,2013-04-19 18:02:00,
2013-04-19 12:13:00,33.0,21.0,-100.00,West,274,21.0,32.0,59,0.00,,,-99.99,,2013-04-19 18:13:00,
2013-04-19 12:22:00,34.0,19.0,-100.00,West,271,21.0,30.0,54,0.00,,,-99.99,,2013-04-19 18:22:00,
2013-04-19 12:33:00,35.0,17.0,-100.00,West,274,13.0,19.0,49,0.00,,,-99.99,,2013-04-19 18:33:00,
2013-04-19 12:42:00,35.0,18.0,-100.00,West,272,15.0,27.0,52,0.00,,,-99.99,,2013-04-19 18:42:00,
2013-04-19 12:52:00,35.0,19.0,-100.00,West,277,14.0,21.0,52,0.00,,,-99.99,,2013-04-19 18:52:00,
2013-04-19 13:01:00,34.0,20.0,-100.00,West,267,10.0,18.0,56,0.00,,,-99.99,,2013-04-19 19:01:00,
2013-04-19 13:11:00,35.0,19.0,-100.00,West,265,9.0,17.0,52,0.00,,,-99.99,,2013-04-19 19:11:00,
2013-04-19 13:21:00,36.0,19.0,-100.00,West,268,9.0,17.0,50,0.00,,,-99.99,,2013-04-19 19:21:00,
2013-04-19 13:32:00,37.0,21.0,-100.00,WSW,244,7.0,13.0,53,0.00,,,-99.99,,2013-04-19 19:32:00,
2013-04-19 13:41:00,37.0,21.0,-100.00,WSW,244,10.0,16.0,53,0.00,,,-99.99,,2013-04-19 19:41:00,
2013-04-19 13:52:00,36.0,20.0,-100.00,WSW,244,13.0,20.0,50,0.00,,,-99.99,,2013-04-19 19:52:00,
2013-04-19 14:02:00,36.0,18.0,-100.00,WSW,244,16.0,24.0,48,0.00,,,-99.99,,2013-04-19 20:02:00,
2013-04-19 14:11:00,36.0,19.0,-100.00,WSW,244,17.0,22.0,51,0.00,,,-99.99,,2013-04-19 20:11:00,
2013-04-19 14:22:00,36.0,20.0,-100.00,WSW,244,13.0,21.0,52,0.00,,,-99.99,,2013-04-19 20:22:00,
2013-04-19 14:32:00,36.0,20.0,-100.00,WSW,244,16.0,24.0,50,0.00,,,-99.99,,2013-04-19 20:32:00,
2013-04-19 14:41:00,36.0,20.0,-100.00,West,260,21.0,29.0,51,0.00,,,-99.99,,2013-04-19 20:41:00,
2013-04-19 14:51:00,36.0,19.0,-100.00,West,270,21.0,30.0,50,0.00,,,-99.99,,2013-04-19 20:51:00,
2013-04-19 15:01:00,37.0,19.0,-100.00,West,270,16.0,22.0,49,0.00,,,-99.99,,2013-04-19 21:01:00,
2013-04-19 15:11:00,37.0,19.0,-100.00,West,278,16.0,21.0,49,0.00,,,-99.99,,2013-04-19 21:11:00,
2013-04-19 15:21:00,37.0,21.0,-100.00,West,264,14.0,20.0,52,0.00,,,-99.99,,2013-04-19 21:21:00,
2013-04-19 15:32:00,36.0,18.0,-100.00,SW,227,12.0,19.0,46,0.00,,,-99.99,,2013-04-19 21:32:00,
2013-04-19 15:42:00,36.0,18.0,-100.00,SW,227,10.0,14.0,48,0.00,,,-99.99,,2013-04-19 21:42:00,
2013-04-19 15:52:00,37.0,22.0,-100.00,SW,227,6.0,9.0,56,0.00,,,-99.99,,2013-04-19 21:52:00,
2013-04-19 16:02:00,36.0,22.0,-100.00,SW,227,7.0,11.0,57,0.00,,,-99.99,,2013-04-19 22:02:00,
2013-04-19 16:12:00,36.0,19.0,-100.00,SW,227,4.0,8.0,49,0.00,,,-99.99,,2013-04-19 22:12:00,
2013-04-19 16:22:00,37.0,18.0,-100.00,SW,227,2.0,4.0,45,0.00,,,-99.99,,2013-04-19 22:22:00,
2013-04-19 16:33:00,37.0,19.0,-100.00,SW,227,4.0,7.0,47,0.00,,,-99.99,,2013-04-19 22:33:00,
2013-04-19 16:42:00,38.0,17.0,-100.00,SW,227,2.0,4.0,42,0.00,,,-99.99,,2013-04-19 22:42:00,
2013-04-19 16:52:00,36.0,20.0,-100.00,SW,227,6.0,7.0,52,0.00,,,-99.99,,2013-04-19 22:52:00,
2013-04-19 17:02:00,36.0,18.0,-100.00,SW,227,5.0,6.0,49,0.00,,,-99.99,,2013-04-19 23:02:00,
2013-04-19 17:11:00,37.0,19.0,-100.00,SW,227,7.0,14.0,49,0.00,,,-99.99,,2013-04-19 23:11:00,
2013-04-19 17:22:00,36.0,21.0,-100.00,SW,227,6.0,9.0,56,0.00,,,-99.99,,2013-04-19 23:22:00,
2013-04-19 17:32:00,35.0,23.0,-100.00,SW,227,6.0,9.0,62,0.00,,,-99.99,,2013-04-19 23:32:00,
2013-04-19 17:42:00,36.0,18.0,-100.00,SW,227,4.0,7.0,48,0.00,,,-99.99,,2013-04-19 23:42:00,
2013-04-19 17:52:00,36.0,22.0,-100.00,SW,227,2.0,6.0,55,0.00,,,-99.99,,2013-04-19 23:52:00,
2013-04-19 18:02:00,36.0,22.0,-100.00,SW,227,2.0,6.0,58,0.00,,,-99.99,,2013-04-20 00:02:00,
2013-04-19 18:12:00,36.0,22.0,-100.00,SW,227,1.0,5.0,56,0.00,,,-99.99,,2013-04-20 00:12:00,
2013-04-19 18:21:00,37.0,20.0,-100.00,SW,227,3.0,7.0,49,0.00,,,-99.99,,2013-04-20 00:21:00,
2013-04-19 18:32:00,37.0,22.0,-100.00,SW,227,4.0,9.0,55,0.00,,,-99.99,,2013-04-20 00:32:00,
2013-04-19 18:41:00,38.0,20.0,-100.00,SW,227,7.0,16.0,48,0.00,,,-99.99,,2013-04-20 00:41:00,
2013-04-19 18:51:00,38.0,18.0,-100.00,SW,227,7.0,11.0,43,0.00,,,-99.99,,2013-04-20 00:51:00,
2013-04-19 19:01:00,38.0,18.0,-100.00,SW,227,7.0,12.0,44,0.00,,,-99.99,,2013-04-20 01:01:00,
2013-04-19 19:11:00,38.0,18.0,-100.00,SW,227,4.0,9.0,43,0.00,,,-99.99,,2013-04-20 01:11:00,
2013-04-19 19:21:00,37.0,20.0,-100.00,SW,227,4.0,8.0,51,0.00,,,-99.99,,2013-04-20 01:21:00,
2013-04-19 19:32:00,36.0,20.0,-100.00,SW,227,9.0,21.0,52,0.00,,,-99.99,,2013-04-20 01:32:00,
2013-04-19 19:42:00,36.0,19.0,-100.00,SW,227,7.0,14.0,49,0.00,,,-99.99,,2013-04-20 01:42:00,
2013-04-19 19:52:00,36.0,20.0,-100.00,SSW,193,6.0,16.0,52,0.00,,,-99.99,,2013-04-20 01:52:00,
2013-04-19 20:01:00,35.0,21.0,-100.00,East,95,4.0,9.0,55,0.00,,,-99.99,,2013-04-20 02:01:00,
2013-04-19 20:11:00,34.0,20.0,-100.00,ESE,103,10.0,19.0,56,0.00,,,-99.99,,2013-04-20 02:11:00,
2013-04-19 20:21:00,36.0,19.0,-100.00,ESE,103,6.0,21.0,51,0.00,,,-99.99,,2013-04-20 02:21:00,
2013-04-19 20:32:00,35.0,20.0,-100.00,ESE,103,10.0,21.0,53,0.00,,,-99.99,,2013-04-20 02:32:00,
2013-04-19 20:42:00,35.0,18.0,-100.00,ESE,103,10.0,21.0,50,0.00,,,-99.99,,2013-04-20 02:42:00,
2013-04-19 20:52:00,35.0,20.0,-100.00,ESE,103,6.0,12.0,54,0.00,,,-99.99,,2013-04-20 02:52:00,
2013-04-19 21:01:00,36.0,19.0,-100.00,ESE,103,6.0,10.0,50,0.00,,,-99.99,,2013-04-20 03:01:00,
2013-04-19 21:11:00,37.0,19.0,-100.00,ESE,103,11.0,21.0,47,0.00,,,-99.99,,2013-04-20 03:11:00,
2013-04-19 21:21:00,37.0,18.0,-100.00,West,281,19.0,35.0,45,0.00,,,-99.99,,2013-04-20 03:21:00,
2013-04-19 21:33:00,37.0,19.0,-100.00,WNW,292,19.0,31.0,47,0.00,,,-99.99,,2013-04-20 03:33:00,
2013-04-19 21:43:00,33.0,22.0,-100.00,NW,322,11.0,21.0,63,0.00,,,-99.99,,2013-04-20 03:43:00,
2013-04-19 21:52:00,34.0,23.0,-100.00,NNW,346,7.0,9.0,64,0.00,,,-99.99,,2013-04-20 03:52:00,
2013-04-19 22:03:00,35.0,21.0,-100.00,NE,55,5.0,11.0,57,0.00,,,-99.99,,2013-04-20 04:03:00,
2013-04-19 22:12:00,35.0,22.0,-100.00,ESE,106,9.0,22.0,60,0.00,,,-99.99,,2013-04-20 04:12:00,
2013-04-19 22:23:00,33.0,22.0,-100.00,ESE,106,17.0,21.0,64,0.00,,,-99.99,,2013-04-20 04:23:00,
2013-04-19 22:32:00,33.0,22.0,-100.00,ESE,106,14.0,19.0,64,0.00,,,-99.99,,2013-04-20 04:32:00,
2013-04-19 22:42:00,35.0,20.0,-100.00,ESE,106,8.0,16.0,55,0.00,,,-99.99,,2013-04-20 04:42:00,
2013-04-19 22:52:00,33.0,23.0,-100.00,ESE,106,10.0,18.0,66,0.00,,,-99.99,,2013-04-20 04:52:00,
2013-04-19 23:02:00,33.0,23.0,-100.00,ESE,106,9.0,17.0,65,0.00,,,-99.99,,2013-04-20 05:02:00,
2013-04-19 23:12:00,33.0,22.0,-100.00,ESE,106,12.0,19.0,62,0.00,,,-99.99,,2013-04-20 05:12:00,
2013-04-19 23:22:00,33.0,23.0,-100.00,NNW,337,17.0,25.0,66,0.00,,,-99.99,,2013-04-20 05:22:00,
2013-04-19 23:32:00,33.0,24.0,-100.00,NW,309,16.0,21.0,70,0.00,,,-99.99,,2013-04-20 05:32:00,
2013-04-19 23:42:00,32.0,23.0,-100.00,WNW,302,14.0,22.0,69,0.00,,,-99.99,,2013-04-20 05:42:00,
2013-04-19 23:51:00,33.0,23.0,-100.00,WSW,258,11.0,23.0,68,0.00,,,-99.99,,2013-04-20 05:51:00,